Change the Weather History Date:

Wednesday, January 8, 2014

  Actual Average Record
Temperature  
Mean Temperature 28 °F -  
Max Temperature 45 °F 50 °F 45 °F (2014)
Min Temperature 10 °F 30 °F 7 °F (2015)
Degree Days  
Heating Degree Days 38    
Moisture  
Dew Point 15 °F    
Average Humidity 68    
Maximum Humidity 99    
Minimum Humidity 28    
Precipitation  
Precipitation 0.00 in - - ()
Sea Level Pressure  
Sea Level Pressure 30.46 in    
Wind  
Wind Speed - (North)    
Max Wind Speed -    
Max Gust Speed -    
Visibility 10 miles    
Events      
Averages and records for this station are not official NWS values.
T = Trace of Precipitation, MM = Missing Value Source: NWS Daily Summary

Daily Weather History Graph

Daily Weather History Graph

Search for Another Location

Airport or City:

Trip Planner

Search our weather history database for the weather conditions in past years. The results will help you decide how hot, cold, wet, or windy it might be!

Date:

Astronomy

Jan. 08, 2014 Rise Set
Actual Time 7:38 AM EST 5:36 PM EST
Civil Twilight 7:11 AM EST 6:04 PM EST
Nautical Twilight 6:39 AM EST 6:35 PM EST
Astronomical Twilight 6:09 AM EST 7:06 PM EST
Moon 12:20 PM EST (1/8) 12:51 AM EST (1/8)
Length of Visible Light 10h 53m
Length of Day
9h 57m
First Quarter, 56% of the Moon is Illuminated
Jan 8
First Quarter
Jan 15
Full
Jan 24
Last Quarter
Jan 30
New
Feb 6
First Quarter

Hourly Weather History & Observations

Time (EST) Temp. Dew Point Humidity Pressure Visibility Wind Dir Wind Speed Gust Speed Precip Events Conditions
12:15 AM 13.8 °F 12.0 °F 93% 30.44 in 10.0 mi North - - N/A   Clear
12:35 AM 13.5 °F 12.0 °F 94% 30.44 in 10.0 mi North - - N/A   Clear
12:55 AM 13.5 °F 12.2 °F 95% 30.43 in 10.0 mi North - - N/A   Clear
1:15 AM 13.5 °F 12.4 °F 95% 30.43 in 10.0 mi North - - N/A   Clear
2:15 AM 12.7 °F 12.6 °F 99% 30.43 in 10.0 mi North - - N/A   Clear
2:35 AM 12.7 °F 12.4 °F 98% 30.43 in 10.0 mi North - - N/A   Clear
2:55 AM 12.9 °F 12.2 °F 97% 30.43 in 10.0 mi North - - N/A   Clear
3:15 AM 11.8 °F 11.3 °F 98% 30.43 in 10.0 mi North - - N/A   Clear
3:35 AM 12.0 °F 11.7 °F 98% 30.44 in 10.0 mi North - - N/A   Clear
3:55 AM 12.4 °F 11.5 °F 96% 30.44 in 10.0 mi North - - N/A   Clear
4:15 AM 11.8 °F 11.3 °F 98% 30.44 in 10.0 mi North - - N/A   Clear
4:35 AM 11.5 °F 11.1 °F 98% 30.44 in 10.0 mi North - - N/A   Clear
4:55 AM 11.5 °F 11.1 °F 98% 30.44 in 10.0 mi North - - N/A   Clear
5:15 AM 11.5 °F 11.1 °F 98% 30.44 in 10.0 mi North - - N/A   Clear
5:35 AM 11.5 °F 11.1 °F 98% 30.44 in 10.0 mi North - - N/A   Clear
5:55 AM 10.9 °F 10.6 °F 98% 30.44 in 10.0 mi North - - N/A   Clear
6:15 AM 10.9 °F 10.4 °F 98% 30.44 in 10.0 mi North - - N/A   Clear
6:35 AM 10.9 °F 10.6 °F 98% 30.44 in 10.0 mi North - - N/A   Clear
6:55 AM 10.6 °F 10.2 °F 98% 30.45 in 10.0 mi North - - N/A   Clear
7:15 AM 10.8 °F 10.0 °F 97% 30.46 in 10.0 mi North - - N/A   Clear
7:35 AM 10.8 °F 10.2 °F 98% 30.46 in 10.0 mi North - - N/A   Clear
7:55 AM 10.8 °F 10.2 °F 98% 30.47 in 10.0 mi North - - N/A   Clear
8:15 AM 11.3 °F 10.9 °F 98% 30.48 in 10.0 mi North - - N/A   Clear
8:35 AM 14.4 °F 13.1 °F 95% 30.50 in 10.0 mi North - - N/A   Clear
8:55 AM 17.1 °F 15.1 °F 92% 30.51 in 10.0 mi North - - N/A   Clear
9:15 AM 20.1 °F 16.2 °F 85% 30.50 in 10.0 mi North - - N/A   Clear
9:35 AM 23.0 °F 16.3 °F 76% 30.52 in 10.0 mi North - - N/A   Clear
9:55 AM 25.3 °F 17.1 °F 71% 30.52 in 10.0 mi North - - N/A   Clear
10:15 AM - - N/A% 30.52 in - North - - N/A   Unknown
10:35 AM 29.3 °F 13.6 °F 52% 30.52 in 10.0 mi North - - N/A   Clear
10:55 AM 31.5 °F 14.4 °F 49% 30.51 in 10.0 mi North - - N/A   Clear
11:15 AM 32.9 °F 14.9 °F 48% 30.50 in 10.0 mi North - - N/A   Clear
11:35 AM 34.3 °F 14.7 °F 45% 30.50 in 10.0 mi North - - N/A   Clear
11:55 AM 36.0 °F 14.7 °F 42% 30.49 in 10.0 mi North - - N/A   Clear
12:15 PM 37.8 °F 14.2 °F 38% 30.48 in 10.0 mi North - - N/A   Clear
12:35 PM 39.0 °F 14.0 °F 36% 30.47 in 10.0 mi North - - N/A   Clear
12:55 PM 40.3 °F 14.2 °F 35% 30.45 in 10.0 mi North - - N/A   Clear
1:15 PM 41.5 °F 14.5 °F 33% 30.44 in 10.0 mi North - - N/A   Clear
1:35 PM 42.4 °F 14.9 °F 33% 30.44 in 10.0 mi North - - N/A   Clear
1:55 PM 43.3 °F 15.8 °F 33% 30.43 in 10.0 mi North - - N/A   Clear
2:15 PM 44.1 °F 15.6 °F 32% 30.42 in 10.0 mi North - - N/A   Clear
2:35 PM 44.8 °F 15.4 °F 31% 30.43 in 10.0 mi North - - N/A   Clear
2:55 PM 45.5 °F 15.4 °F 30% 30.44 in 10.0 mi North - - N/A   Clear
3:15 PM 45.0 °F 15.1 °F 30% 30.43 in 10.0 mi North - - N/A   Clear
3:35 PM 45.3 °F 15.1 °F 30% 30.43 in 10.0 mi North - - N/A   Clear
3:55 PM 45.3 °F 14.7 °F 29% 30.43 in 10.0 mi North - - N/A   Clear
4:15 PM 45.7 °F 14.5 °F 29% 30.44 in 10.0 mi North - - N/A   Clear
4:35 PM 45.3 °F 14.4 °F 29% 30.44 in 10.0 mi North - - N/A   Clear
4:55 PM 44.8 °F 13.6 °F 28% 30.44 in 10.0 mi North - - N/A   Clear
5:15 PM 43.9 °F 13.6 °F 29% 30.44 in 10.0 mi North - - N/A   Clear
5:35 PM 41.9 °F 13.5 °F 32% 30.44 in 10.0 mi North - - N/A   Clear
5:55 PM 40.6 °F 13.3 °F 33% 30.44 in 10.0 mi North - - N/A   Clear
6:15 PM 36.7 °F 14.2 °F 40% 30.44 in 10.0 mi North - - N/A   Clear
6:35 PM 33.8 °F 15.1 °F 46% 30.45 in 10.0 mi North - - N/A   Clear
6:55 PM 31.6 °F 17.2 °F 55% 30.45 in 10.0 mi North - - N/A   Clear
7:15 PM 30.7 °F 17.2 °F 57% 30.46 in 10.0 mi North - - N/A   Clear
7:35 PM 28.9 °F 18.3 °F 65% 30.46 in 10.0 mi North - - N/A   Clear
7:55 PM 28.9 °F 19.0 °F 67% 30.47 in 10.0 mi North - - N/A   Clear
8:15 PM 28.2 °F 18.9 °F 68% 30.48 in 10.0 mi North - - N/A   Clear
8:35 PM 27.5 °F 18.9 °F 70% 30.48 in 10.0 mi North - - N/A   Clear
8:55 PM 27.0 °F 19.4 °F 73% 30.48 in 10.0 mi North - - N/A   Clear
9:15 PM 27.0 °F 19.0 °F 72% 30.49 in 10.0 mi North - - N/A   Clear
9:35 PM 26.4 °F 19.0 °F 74% 30.48 in 10.0 mi North - - N/A   Clear
9:55 PM 25.7 °F 19.6 °F 78% 30.49 in 10.0 mi North - - N/A   Clear
10:15 PM 25.5 °F 17.6 °F 72% 30.49 in 10.0 mi North - - N/A   Clear
10:35 PM 25.2 °F 19.6 °F 79% 30.49 in 10.0 mi North - - N/A   Clear
10:55 PM 24.8 °F 19.4 °F 80% 30.48 in 10.0 mi North - - N/A   Clear
11:15 PM 24.1 °F 19.0 °F 81% 30.48 in 10.0 mi North - - N/A   Clear
11:35 PM 24.4 °F 19.4 °F 81% 30.48 in 10.0 mi North - - N/A   Clear
11:55 PM 23.9 °F 20.7 °F 87% 30.48 in 10.0 mi North - - N/A   Clear